TimeEST,TemperatureF,Dew PointF,Humidity,Sea Level PressureIn,VisibilityMPH,Wind Direction,Wind SpeedMPH,Gust SpeedMPH,PrecipitationIn,Events,Conditions,WindDirDegrees,DateUTC
12:08 AM,69.8,66.2,88,29.98,7.0,NW,8.1,-,0.00,Rain,Light Rain,310,2012-02-11 05:08:00
12:15 AM,69.8,66.2,88,29.97,3.0,NW,8.1,-,0.03,Rain,Heavy Rain,320,2012-02-11 05:15:00
12:22 AM,69.8,66.2,88,29.97,1.8,NW,8.1,-,0.07,Rain,Heavy Rain,320,2012-02-11 05:22:00
12:29 AM,68.0,66.2,94,29.98,2.0,NW,8.1,-,0.10,Rain,Rain,310,2012-02-11 05:29:00
12:39 AM,68.0,66.2,94,29.97,2.5,NNW,12.7,19.6,0.14,Rain,Heavy Rain,330,2012-02-11 05:39:00
12:53 AM,68.0,66.0,93,29.97,3.0,NW,10.4,18.4,0.19,Rain,Rain,320,2012-02-11 05:53:00
1:12 AM,68.0,66.2,94,29.96,3.0,Variable,6.9,-,0.06,Rain,Rain,0,2012-02-11 06:12:00
1:31 AM,66.2,66.2,100,29.96,4.0,North,6.9,-,0.09,Rain,Rain,350,2012-02-11 06:31:00
1:53 AM,66.9,64.9,93,29.96,9.0,NNW,8.1,-,0.11,Rain,Light Rain,340,2012-02-11 06:53:00
2:02 AM,66.2,64.4,94,29.97,10.0,NNW,8.1,17.3,0.00,Rain,Light Rain,340,2012-02-11 07:02:00
2:53 AM,66.9,64.9,93,29.94,10.0,Calm,Calm,-,0.05,,Scattered Clouds,0,2012-02-11 07:53:00
3:53 AM,66.9,64.0,90,29.92,10.0,Calm,Calm,-,N/A,,Mostly Cloudy,0,2012-02-11 08:53:00
4:53 AM,66.0,64.0,93,29.92,8.0,Calm,Calm,-,N/A,,Clear,0,2012-02-11 09:53:00
5:53 AM,66.9,63.0,87,29.92,10.0,WNW,9.2,-,N/A,,Scattered Clouds,290,2012-02-11 10:53:00
6:53 AM,66.9,63.0,87,29.93,10.0,WNW,6.9,-,N/A,,Partly Cloudy,300,2012-02-11 11:53:00
7:53 AM,66.9,64.0,90,29.95,10.0,WNW,8.1,-,N/A,,Partly Cloudy,290,2012-02-11 12:53:00
8:53 AM,69.1,64.0,84,29.97,10.0,NW,10.4,-,N/A,,Scattered Clouds,310,2012-02-11 13:53:00
9:07 AM,69.8,62.6,78,29.99,10.0,NW,11.5,20.7,N/A,,Mostly Cloudy,310,2012-02-11 14:07:00
9:53 AM,68.0,60.1,76,30.01,10.0,NW,17.3,25.3,N/A,,Overcast,310,2012-02-11 14:53:00
10:03 AM,68.0,59.0,73,30.02,10.0,NW,15.0,24.2,N/A,,Overcast,310,2012-02-11 15:03:00
10:37 AM,66.2,60.8,83,30.03,9.0,NW,15.0,26.5,N/A,,Overcast,320,2012-02-11 15:37:00
10:53 AM,66.9,59.0,76,30.02,9.0,NNW,10.4,18.4,N/A,,Overcast,330,2012-02-11 15:53:00
11:41 AM,66.2,57.2,73,30.02,10.0,NNW,12.7,23.0,N/A,,Scattered Clouds,330,2012-02-11 16:41:00
11:53 AM,68.0,57.9,70,30.02,10.0,NW,17.3,26.5,N/A,,Partly Cloudy,320,2012-02-11 16:53:00
12:53 PM,70.0,57.0,63,29.99,10.0,NW,12.7,21.9,N/A,,Scattered Clouds,320,2012-02-11 17:53:00
1:53 PM,70.0,53.1,55,29.98,10.0,NW,13.8,31.1,N/A,,Clear,320,2012-02-11 18:53:00
2:53 PM,68.0,52.0,56,29.97,10.0,NW,15.0,26.5,N/A,,Partly Cloudy,310,2012-02-11 19:53:00
3:53 PM,66.0,53.1,63,29.98,10.0,NNW,11.5,31.1,N/A,,Partly Cloudy,330,2012-02-11 20:53:00
4:53 PM,64.9,53.1,65,29.99,10.0,NW,15.0,25.3,N/A,,Clear,320,2012-02-11 21:53:00
5:53 PM,64.0,53.1,67,30.01,10.0,NW,10.4,23.0,N/A,,Scattered Clouds,310,2012-02-11 22:53:00
6:53 PM,63.0,52.0,67,30.03,10.0,NW,18.4,25.3,N/A,,Overcast,310,2012-02-11 23:53:00
7:53 PM,62.1,48.9,62,30.06,10.0,NW,13.8,26.5,N/A,,Mostly Cloudy,320,2012-02-12 00:53:00
8:53 PM,61.0,48.0,62,30.08,10.0,NW,11.5,19.6,N/A,,Overcast,310,2012-02-12 01:53:00
9:53 PM,60.1,48.0,64,30.12,10.0,NW,11.5,20.7,N/A,,Mostly Cloudy,320,2012-02-12 02:53:00
10:53 PM,57.0,45.0,64,30.13,10.0,North,10.4,19.6,N/A,,Partly Cloudy,350,2012-02-12 03:53:00
11:53 PM,55.9,45.0,67,30.14,10.0,North,9.2,-,N/A,,Clear,360,2012-02-12 04:53:00